Location: Devore Heights
(34.2372°N, 117.4156°W)
Time: 09:50:02
(UTC+00:00)

Altair - Pass Details

Date: 15 September 2024
Orbit: 1501 x 1682 km, 47.2° (Epoch: 07 October)

Event Time Altitude Azimuth Distance (km) Brightness Sun altitude
Rises 15:44:28 0° 304° (NW) 4,937 9.6 26.0°
Reaches altitude 10° 15:47:42 10° 307° (NW) 3,948 9.2 26.6°
Maximum altitude 15:57:51 68° 30° (NNE) 1,770 8.4 28.7°
Drops below altitude 10° 16:07:44 10° 113° (ESE) 3,856 11.2 30.6°
Sets 16:10:50 0° 116° (ESE) 4,818 11.2 31.2°
